Content
SEND FEEDBACK

Daily
Averages
Monthly
Summary
United States of America

NEW YORK - UPPER EAST SIDE, NEW YORK


Home > North America > United States > New York
Elevation: 132 feet     Latitude: 40 47N     Longitude: 073 58W

WEATHER
 
SELECT A DAY
Number of Records: 148,168;   Date Range: 11/1/95 - 8/12/14
 
SHARE

PRINT THIS DATA

[ ← Previous Day ]
WEATHER ALMANAC - FEBRUARY 13, 2013
[ Next Day → ]
[ °C ]   °F
Weather ElementAverageHighLow
Temperature37.6 °F44.1 °F (1:51 pm)33.1 °F (5:51 am)
Dewpoint24.6 °F30.9 °F (10:51 pm)19.9 °F (8:51 am)
Humidity61.1 %89 % (11:24 pm)42 % (1:51 pm)
Barometer29.80 in29.95 in (1:51 am)29.70 in (5:51 pm)
Wind Speed4 mph10.4 mph (11:51 pm)
Weather ElementAverage
Visibility8.6 mi
Wind DirectionENE (56.7 °)

Weather ElementTotal
Precipitation0.05 in
Heating Degree Days26.4 (Base 65)
Averaged from 27 records on February 13, 2013
WEATHER CONDITIONS BREAKOUT
WIND DIRECTION BREAKOUT
WEATHER BY HOUR - FEBRUARY 13, 2013
[ °C ]   °F
Local TimeTemperatureDewpointHumidityBarometerVisibilityWind DirectionWind SpeedGust SpeedPrecipitationEventsConditions
1:51 AM36.0 °F21.9 °F57 %29.95 in10.0 miWest (270°)4.6 mphClear
2:51 AM35.1 °F21.9 °F59 %29.94 in10.0 miVariable3.5 mphClear
3:51 AM35.1 °F21.9 °F59 %29.93 in10.0 miWNW (300°)4.6 mphClear
4:51 AM34.0 °F21.9 °F61 %29.90 in10.0 miNW (310°)5.8 mphClear
5:51 AM33.1 °F21.9 °F64 %29.91 in10.0 miCalmClear
6:51 AM33.1 °F21.9 °F64 %29.91 in10.0 miCalmClear
7:51 AM35.1 °F21.9 °F59 %29.91 in10.0 miCalmClear
8:51 AM37.0 °F19.9 °F50 %29.89 in10.0 miVariable4.6 mphClear
9:51 AM37.9 °F19.9 °F48 %29.88 in10.0 miENE (60°)5.8 mphClear
10:51 AM39.9 °F21.0 °F47 %29.89 in10.0 miCalmClear
11:51 AM39.9 °F21.0 °F47 %29.86 in10.0 miWSW (250°)5.8 mphClear
12:51 PM41.0 °F21.9 °F47 %29.82 in10.0 miVariable3.5 mphClear
1:51 PM44.1 °F21.9 °F42 %29.77 in10.0 miENE (60°)3.5 mphClear
2:51 PM44.1 °F23.0 °F43 %29.77 in10.0 miVariable3.5 mphClear
3:51 PM43.0 °F23.0 °F45 %29.74 in10.0 miCalmClear
4:51 PM41.0 °F26.1 °F55 %29.72 in9.0 miCalmScattered Clouds
5:51 PM39.9 °F26.1 °F58 %29.70 in10.0 miENE (70°)6.9 mphMostly Cloudy
6:51 PM39.9 °F26.1 °F58 %29.70 in9.0 miNE (50°)3.5 mphOvercast
7:51 PM39.9 °F25.0 °F55 %29.70 in10.0 miENE (70°)5.8 mphOvercast
8:51 PM39.0 °F26.1 °F60 %29.70 in10.0 miCalmOvercast
9:51 PM39.0 °F25.0 °F57 %29.70 in10.0 miVariable4.6 mphOvercast
10:35 PM36.0 °F30.0 °F79 %29.72 in5.0 miNNE (30°)8.1 mph0.00 inSnowLight Snow
10:51 PM35.1 °F30.9 °F85 %29.70 in6.0 miVariable4.6 mph0.00 inOvercast
11:18 PM35.1 °F30.9 °F85 %29.73 in4.0 miNorth (10°)8.1 mph0.00 inSnowLight Snow
11:24 PM34.0 °F30.9 °F89 %29.73 in2.5 miNNE (20°)8.1 mph0.01 inSnowLight Snow
11:42 PM34.0 °F30.9 °F89 %29.73 in3.0 miVariable3.5 mph0.02 inSnowLight Snow
11:51 PM34.0 °F30.9 °F89 %29.71 in3.0 miNNE (30°)10.4 mph0.02 inSnowLight Snow
Hourly data recorded from KNYC, located miles away from New York - Upper East Side, New York







STORIES FROM OUR PARTNERS